[Date Prev][Date Next][Thread Prev][Thread Next][Date Index][Thread Index]

[jamsat-news:1240] jas2info #177



========================   最新情報   ==============================

        Last updated :Thu.16-Mar.-2000 15:40 (JST) #177

====================================================================
   
  1)アマチュア通信衛星情報 FOシリーズの軌道要素、テレメトリ、
   QSOの状況等をまとめてみました.
   
   FO−29の3月16日(木)のテレメトリはJARLのホームページの
  運用予定のとうり12:31(JST)のパスではアナログ系運用になって
  おりました.CW信号で12:32〜12:48(JST)に受信できました.
  現在まで、当局で取得したデータの1部を掲載しておきます.
    
 AS17671C1   16Mar2000
 12:32 - 12:48(JST)
 Freq. 435.804-.787 MHz
                           0D 00 2E 74 7A 92 60 92 9A AF 90 BB BB BD BB BB 
 HI HI AE C7 88 55 14 2C 0A 0D 00 2E 49 67 96 60 94 91 B0 89 BB BB BD BB BB 
 HI HI AE C7 88 55 19 2C FF 0D 00 2E 70 3A 95 60 93 90 B0 90 BB BA BD BB BB 
 HI HI AE C7 88 55 1E 2C FF 25 00 2E 8C 6F 92 60 92 90 9F 7C BB BA BD BB BB 
 HI HI AE C7 88 55 03 2C 0A 0D 00 2E 53 54  8 60 95 94 B0 86 BB BA BD BB BB 
 HI HI AE C7 88 55 08 2C FF 0D 00 2E 79 3A 93 3F 95 92 B0 7E BB BA BC BB BB 
 HI HI AE C7 88 55 0D 2C FF 0D 00 2E 84 60 8B 43 94 92 B0 7D BB BA BC BB BB 
 HI HI AE C7 88 55 12 2C FF 0D 00 2E 63 47 93 3D 95 92 B0 95 BB B9 BC BB BB 
 HI HI AE C7 88 55 17 2C FF 0D 00 2E 7E 40 8E 60 94 92 B0 81 BB B9 BC BB BB 
 HI HI AE C7 88 55 1C 2C 0A 0D 00 2E 79 4D 88 60 92 90 9F 6B BA B9 BC BB BB 
 HI HI AE C7 88 55 01 2C FF 0D 00 2E 77 3D 96 5F 92 90 B0 8A BA B9 BC BB BB 
 HI HI AE 07 88 55 06 2C FF 0D 00 2E 81 4B 8F 60 93 90 B0 90 BA B9 BB BB BB 
 HI HI AE C7 88 55 0C 2C FF 0D 00 2E 6C 39 84 61 94 92 B0 7D BA B8 BB BB BB 
 HI HI AE C7 88 55 11 2C FF 0D 00 2E 8C 3C 91 60 92 90 B0 81 BA B8 BB BB BB 
 HI HI AE C7 88 55 16 2C FF 0D 00 2E 79 57 87 60 93 91 B0 6D BA B8 BB BB BB 
 HI HI AE C7 88 55 1B 2C FF 0D 00 2E 61 26 7D 60 92 90 B0 7B BA B7 BB BA BB 
 HI HI AE C7 88 55 00 2C GF 0D 00 2E A1 47 8E 60 93 90 B1 8C BA B7 BA BA BB 
 HI HI AE C7 88 55 05 2C FF 25 00 2E 71 62 85 61 92 90 B0 7A BA B7 BA BA BB 
 HI HI AE C7 88 55 0A 2C FF 0D 00 2E 56 1C 79 4A 96 92 B0 9E BA B7 BA BA BB 
 HI HI AE C7 88 55 0F 2C FF 1A 00 2E AC 4E 8F 60 93 91 B0 9D BA B6 BA BA BB 
 HI HI AE C7 88 55 14 2C FF 0D 00 2E 70 71 89 60 92 90 B0 6F B9 B6 BA BA BB 
 HI HI AE C7 88 55 19 2C FF 0D 00 2E 48 1C 78 60 93 90 B1 97 BA B6 BA BA BB 
 
 AS17657C  15Mar2000
 11:44 - 11:57(JST)

 HI HI AE C7 88 55    2C 0A 0D 00 2E 6F 51 8E 60 92 90 B0 79 BC B9 BB BB BB 
 HI HI AE C7 88 55 18 2C 0A 0D 00 2E 57 42 84 60 92 92 A1 7D BC BA BB BB BB 
 HI HI AE C7 88 55 1D 2C FF 1E 00 2E 55 53 83 60 92 92 A1 77 BC B9 BA BB BB 
 HI HI AE C7 88 55 02 2C FF 0D 00 2E 5D 46 8C 60 92 90 A0 7B BC B9 BA BA BB 
 HI HI AE C7 88 55 07 2C 05 0D 00 2E 55 4B 82 60 92 90 B0 84 BC B9 BA BA BB 
 HI HI AE C7 88 55 0D 2C FF 0D 00 2E 5E 40    60 93 90 B0 81 BC B9 BA BA BB 
 HI HI AE C7 88 55    2C FF 0D 00 2E 48 49 90 60 93 91 B0 8B BC B9 BA BA BB 
 HI HI AE C7 88 55    2C FF 0D 00 2E 61 50 86 60 94 91 B0 94 BB B9 BA BA BB 
 HI HI AE C7 88 55 1C 2C 0A 0D 00 2E 5D 2C 86 60 92 90 B0 7B BB B9 BA B9 BB 
 HI HI AE C7 88 55 01 2C FF 0D 00 2E 38 5C 93 60 93 91 B0 8D BB B9 BA B9 BB 
 HI HI AE C7 88 55 07 2C FF 0D 00 2E 76 48 8B 5F 92 90 B0 82 BB B9 BA B9 BB 
 HI HI AE C7 88 55 0C 2C FF 0D 00 2E 50 27 8D 60 93 90 B0 84 BB B9 BA B9 BB 
 HI HI AE C7 88 55 11 2C FF 0N 00 2E 37 75 95 60 92 90 B0 87 BA B8 BA B9 BB 
 HI HI AE C7 88 55 06 2C FF 1E 00 2E  C 37 8C 60 92 90 B0 85 BA B8 BA B8 BB 
 HI HI AE C7 88 55 1B 2C FF 0D 00 2E 3E 35 8E 60 93 91 B0 84 BA B8 B9 B8 BB 
 HI HI AE C7 88 55 00 2C 1E 0D 
 HI HI AE C7 88 55 05 2C FF 1A 00 2E 9D 2B 85 60 93 90 B0 6B BA B8 B9 B8 BB 
 HI HI AE C7 88 55 0B 2C FF 0D 00 2E 2D 57 

 AS17643C1   14Mar2000
 10:54-11:06(JST)
                                  
 HI HI AE C7 88 55 1C 2C FF 0D 00 3E 5F 3F 86 60 92 9F B0 87 BB BB BC BA BB  
 HI HI AE C7 88 55 01  C FF 0D 00 3E 75 41 86 60 92 90 B0 OC BA BA BC BA BB 
 HI HI AE AE 88 55 06 2C FF 0D 00 3E 6A 40 86 60 92 90 B0 95 BA BA BC B9 BB 
 HI HI AE C7 88 55 0B 2C FF 0D 00 2E 73 40 8E 60 93 90 B0 88 BA BA BB B9 BB 
 HI HI AE C7 88 55 10 2C FF 0D 00 2E 98 40 87 60 93 91 B0 76 BA BA BB B9 BB
 HI HI AE C7 88 55 15 2C FF 0D 00 2E 74 37 88 60 92 8F B0 81 BA B9 BB B9 BB 
 HI HI AE C7 88 55 1B 2C FF 0D 00 2E 7B 4F 8B 60 93 90 B0 6B BA B9 BB B9 BA 
 HI HI AE C7 88 55 00 2C FF 0D 00 2E 59 47 8C 60 93 90 B0 9E BA B9 BB B9 BB 
 HI HI AE C7 88 55 25 2C FF 0D 00 2E 7E 55 90 60 92 90 B0 6D B9 B8 BA B9 BA 
 HI HI AE C7 88 55 19 2C FF 0D 00 2E 4F 5E 8D 60 92 90 B0 82 B9 B8 BA B9 BB 
 HI HI AE C7 88 55 1E 2C FF 0D 00 2E 6C 21 83 60 92 90 B0 5E B9 B8 BA B9 BB 
 HI HI AE C7 88 55 03 2C FF 0D 00 2E A3 7D 92 60 92 90 B0 8D B9 B7 BA B9 BA 
 HI HI AE C7 88 55 08 2C FF 0D 00 2E 30 49 8C 60 92 90 B0 54 B9 B7 BA B9 BA 
 HI HI AE C7 88 55 0E 2C FF 0D 00 2E 95 3D 8D 60 92 90 B0 79 B9 B7 B9 B9 BA 
 
 AS17631C1  13Mar2000
 13:34-13:46(JST)

 HI HI AE C7 88 55 0E 2C FF 0D 00 2E 70 57 86 60 93 91 B0 66 BB B8 BB BB B9 
 HI HI AE C7 88 55 13 2C FF 0D 00 2E 6F 36 89 60 95 91 B0 97 BA B8 BB BB BA 
 HI HI AE C7 88 55 02 2C FF 0D 00 2E 7B 3A 8B 60 93 91 B0 7D BA B7 BA BB BA 
 HI HI AE C7 88 55 07 2C FF 0D 00 2E 7B 36 86 60 93 91 B0 8B BA B7 BA BB BA
 HI HI AE C7 88 55 0C 2C FF 0D 00 2E 8A 46 84 60 92 90 B0 76 BA B6 B9 BB BA 
 HI HI AE C7 88 55 00 2C FF 0D 00 2E 58 25 82 60 93 91 B0 7F BA B6 B9 BA BA 
 HI HI AE C7 88 55 0E 2C FF 0D 00 2E 9D 42 8E 60 92 90 B0 81 BA B6 B9 BA BA 
 HI HI AE C7 88 55 0B 2C FF 0D 00 2E 66 3A 88 60 96 92 B0 8F BA B6 B9 BA BA 
 HI HI AE C7 88 55 10 2C FF 0D 00 2E 5D 31 8B 60 93 91 B0 6B B9 B6 B9 BA BA 
 HI HI AE C7 88 55 15 2C FF 0D 00 2E AA 53 90 60 92 90 B0 6C B9 B5 B8 BA BA 
 HI HI AE C7 88 55 IE 2C FF 1E 00 2E 77 37 82 60 92 90 B0 90 B6 B5 B8 BA BA 
 HI HI AE C7 88 55 1F 2C FF 1E 00 2E 72 56   

------------------------- FO-29の軌道要素 ------------------------------        
 
  ■ 軌道要素1:「jamsat−keps:974」より              
            SB KEPS @ AMSAT  $ORB00070.N
            2Line Orbital Elements 00070.AMSAT

 HR AMSAT ORBITAL ELEMENTS FOR AMATEUR SATELLITES IN NASA FORMAT
 FROM WA5QGD FORT WORTH,TX March 10, 2000
 SEND SUBSCRIBE/UNSUBSCRIBE TO majordomo@amsat.org ONLY
 BID: ORB00070.N

  DECODE 2-LINE ELSETS WITH THE FOLLOWING KEY:
  1 AAAAAU 00  0  0 BBBBB.BBBBBBBB  .CCCCCCCC  00000-0  00000-0 0  DDDZ
  2 AAAAA EEE.EEEE FFF.FFFF GGGGGGG HHH.HHHH III.IIII JJ.JJJJJJJJKKKKKZ
  KEY: A-CATALOGNUM B-EPOCHTIME C-DECAY D-ELSETNUM E-INCLINATION F-RAAN
  G-ECCENTRICITY H-ARGPERIGEE I-MNANOM J-MNMOTION K-ORBITNUM Z-CHECKSUM

  TO ALL RADIO AMATEURS BT

 FO-29
 1 24278U 96046B   00069.19393826  .00000021  00000-0  54614-4 0 03265
 2 24278 098.5900 350.1696 0351873 125.6226 237.8231 13.52701788175772
  
 ■ 軌道要素2:「jamsat−keps:974」より                         
         SB KEPS @ AMSAT  $ORB00070.O
         Orbital Elements  00070.OSCAR

 HR AMSAT ORBITAL ELEMENTS FOR OSCAR SATELLITES
 FROM WA5QGD FORT WORTH,TX March 10, 2000
 SEND SUBSCRIBE/UNSUBSCRIBE TO majordomo@amsat.org ONLY
 BID: ORB00070.O
 TO ALL RADIO AMATEURS BT

  Satellite: FO-29
 Catalog number: 24278
 Epoch time:      00069.19393826
 Element set:    0326
 Inclination:      098.5900 deg
 RA of node:       350.1696 deg
 Eccentricity:    0.0351873
 Arg of perigee:   125.6226 deg
 Mean anomaly:     237.8231 deg
 Mean motion:   13.52701788 rev/day
 Decay rate:        2.1e-07 rev/day^2
 Epoch rev:           17577
 Checksum:              322

-------------------  FO-29(JAS-2)のテレメトリに関する情報  ----------------------
 
 2)上記の3月16日(木)の12:31(JST)のパスのディジタル・テレメトリの
  最後の行の分析結果です.

  AS17671C1   16Mar2000
  12:32 - 12:48(JST)
  Freq. 435.804-.787 MHz
 
  HI HI AE C7 88 55 19 2C FF 0D 00 2E 48 1C 78 60 93 90 B1 97 BA B6 BA BA BB

 テレメトリ	内   容		換算値	単 位
 
 3C	磁気センサーZ軸=	35294.1	[nT]
 3D	磁気センサX軸	=	13725.5	[nT]
 4A	太陽電池発生電流=	 1176.5	[mA]
 4B	B充放電電流	=	 -118.4	[mA]
 4C	B端子電圧	=	   15.8	[V]
 4D	B中間端子電圧	=	    6.9	[V]
 5A	バス電圧 	=	   17.4	[V]
 5B	JTA送信電力	=	  883.4	[mW]
 5C 	構体温度1	=	    9.6	[℃]
 5D	構体温度2	=	   11.2	[℃]
 6A	構体温度3	=	    9.6	[℃]
 6B	構体温度4	=	    9.6	[℃]
 6C	Bセル温度	=	    9.3	[℃]
  
   * OSはWindows 2000,Office 2000 にて計算処理.

--------------------------  FO−29,FO‐20のQSO情報 -------------------------
 
 3)[jamsat-bb:5160]FO-20/FO-29にJN1GKZの新井 氏が投稿されていましたので
   転載させて頂きました.
  
  3月16日(木)23:47 JST頃、東京から見るとFO-20とFO-29の方位角が同じになりま
 す。仰角は違いますが、同時にFO-20とFO-29にアップリンクすることができそうです。

  ダウンリンクがどう聞こえるか興味あるところです。

  JN1GKZ 新井
    jn1gkz@jamsat.or.jp     http://www.din.or.jp/~m-arai/
 
 ==================================================================================

  4)JARL のホームページに運用予定が記載されていましたのでご紹介します.
       ( http://www.jarl.or.jp/Japanese/3_Fuji/new/uy.htm )

        ■ ふじ3号/FOー29/JAS-2 ■  
   
     *** 運用予定について ***
    
  03月11日 〜 03月20日 アナログ系運用 
   03月21日 〜 03月24日 デジタル系1200bpsメールボックス運用 
   03月25日 〜 04月02日 アナログ系運用   

 *なお,運用予定は都合により変更することがありますのでご了承願います。

 照会先 : lab@jarl.or.jp

 最新の情報はテレホンサービス(03−3942−1000)をお聞きください。  
 以後の運用につきましては3月下旬にお知らせいたします。

-----------------------    FO−20(JAS-1b)道要素   -------------------------
  5)
  ■ 軌道要素1 :出典はFO-29「ふじ3号」に同じ.
  
  FO-20
 1 20480U 90013C   00068.88388609  .00000014  00000-0  11374-3 0 02347
 2 20480 099.0356 218.1409 0539976 282.4930 071.6295 12.83264524472415
 
  ■ 軌道要素2 :出典はFO−29「ふじ3号」に同じ.
               
 Satellite: FO-20
 Catalog number: 20480
 Epoch time:      00068.88388609
 Element set:    0234
 Inclination:      099.0356 deg
 RA of node:       218.1409 deg
 Eccentricity:    0.0539976
 Arg of perigee:   282.4930 deg
 Mean anomaly:     071.6295 deg
 Mean motion:   12.83264524 rev/day
 Decay rate:        1.4e-07 rev/day^2
 Epoch rev:           47241
 Checksum:              314

 --------------  FO-20(JAS-1b)のテレメトリとQSOに関する情報  ------------------
 
 6)2月12日(土)の15:12(JST)のパスでは前回観測のような唸りはありませんでしたが
   単一正弦波状の音がテレメトリとして観測されました。しかしアナログQSOは正常で活発に
   行われておりました。

 --------------------------------------------------------------------------------
 7)         ■ ふじ2号/FO−20/JAS-1b ■      
            
          「ふじ2号」 現況                                                                                  
             
   JAS-1b(ふじ2号)のCWテレメトリ信号に,1997年10月12日12時(JST)の
 日本上空通過時,3桁の数字が繰り返されるはずが3個の長音の繰り返しとなっているという
 異常が発見されました。この不具合は次の通過時からは回復していましたが13日15時20分の
 通過時に再び観測されました。現在はA0の送信が続いています。衛星のアナログ系中継モード
 動作は異常が無く,正常時のテレメトリ内容からは衛星の動作に異常は認められません。従って,
 直ちに衛星のミッションに影響することは無いと予想されますので,当面はアナログ系中継
 モードを継続します。衛星は既に打ち上げてから7年8ヶ月を経ておりますので,今後は監視を
 強化する予定です。アマチュア各位のレポートをお待ちします。
 -------------------------------------------------------------------------------- 
  1997年10月14日 00時35分 確認のテレメトリ音 151 KB (A0) 
  1997年10月14日 11時10分 確認のテレメトリ音 216 KB (異常キーイング) 

  以上 JARLのホ−ムページの http://www.jarl.or.jp/Japanese/3_Fuji/new/fuji.htm
                                           
   =============   JAS-2 (ふじ3号)と現在までの情報   ===========
  
  A.電話によるふじ3号の運用情報
      社団法人日本アマチュア連盟によるサービス
           TEL .   03− 3942 − 1000
  B.アマチュア無線FAXサービス
      JARLによるふじ3号の軌道情報(オービットカレンダー)
         FAX No.  03− 3233 −0055
  C.WWWブラウザで情報を簡単に見れる人のためにJAS−2
     ふじ3号の衛星としての運用されるまでの名前)の概要、打ち上げ
     までの状況、運用中における状況を説明したホームページを紹介し
     ておきます.
     社団法人日本アマチュア無線連盟(JARL)のホームページ

          http://www.jarl.or.jp/Japanese/3_Fuji/jasmenu.htm
 
     宇宙開発事業団(NASDA)ホームページ 
          http://www.nasda.go.jp/
         打上げ衛星 :地球観測プラットフォーム技術衛星(ADEOS) 
                       アマチュア衛星3号(JAS-2)
          http://yyy.tksc.nasda.go.jp/Home/Press/Press-j/jas-2_j.html        

  D.JAMSATによる軌道情報の活用
        JAMSATのホームページまたはjamsat−kepsの軌道要素より
      衛星の軌道情報を得る.
     JAMSATホームページ
               URL    http://www.jamsat.or.jp
       上記ホームページでは各地で行われるアマチュア通信衛星に関する
      ミューティングのお知らせや世界のアマチュア衛星に関する情報が
      満載されています.
 ========================================================================  
     JAMSATのメンバーのご協力によりJH6MME(高山 秀造)が
    執筆・編集を担当しております.ご指摘の意見、疑問やこのようにしたら
    というアイデアがありましたら小さなことでもかまいませんので気軽に下
    記アドレスまでご連絡ください.jamsat−newsからjas2
    infoへの転載をJH4PHW局坂井さんに担当して頂いております.  
                  E-mail : jh6mme@jamsat.or.jp : jh4phw@jamsat.or.jp
 ===============================   END  ===============================